This demonstration page uses our WeatherBlox Daily Observations layout. Learn more.

Left ArrowRight Arrow

40.92945, -100.16068

Hourly Observations for October 31, 2018

Temp ( °F °C ) Dew Point ( °F °C ) Humidity (%) Winds ( mph kmh ) Pressure ( in mb ) Visibility ( mi km ) Precip ( " mm )
12:15 am 00:15 Partly Cloudy 42 5.5 36 2.3 80 80 WNW 3 6 30.12 1020 10 16.0934 0 0
12:35 am 00:35 Partly Cloudy 42 5.5 36 2.2 80 80 NW 3 6 30.12 1020 10 16.0934 0 0
12:55 am 00:55 Partly Cloudy 41 5.1 36 2.1 81 81 NW 5 7 30.09 1019 10 16.0934 0 0
1:15 am 01:15 Partly Cloudy 41 4.8 34 1.3 78 78 NW 6 9 30.09 1019 10 16.0934 0 0
1:30 am 01:30 Partly Cloudy 40 4.2 34 1.1 80 80 WNW 5 7 30.09 1019 10 16.0934 0 0
1:55 am 01:55 Clear 38 3.3 34 1 85 85 WNW 5 7 30.12 1020 10 16.0934 0 0
2:15 am 02:15 Clear 37 2.8 33 0.6 86 86 NW 3 6 30.12 1020 10 16.0934 0 0
2:35 am 02:35 Clear 37 2.7 33 0.6 86 86 W 5 7 30.15 1021 10 16.0934 0 0
2:55 am 02:55 Clear 37 2.8 33 0.8 87 87 WNW 6 9 30.12 1020 10 16.0934 0 0
3:15 am 03:15 Clear 37 3 33 0.7 85 85 W 6 9 30.15 1021 10 16.0934 0 0
3:35 am 03:35 Clear 38 3.3 34 1 85 85 W 6 9 30.15 1021 10 16.0934 0 0
3:55 am 03:55 Clear 37 3 33 0.8 86 86 W 6 9 30.15 1021 10 16.0934 0 0
4:15 am 04:15 Clear 38 3.2 34 1 86 86 W 6 9 30.15 1021 10 16.0934 0 0
4:35 am 04:35 Clear 38 3.3 34 1.2 86 86 W 7 11 30.15 1021 10 16.0934 0 0
4:55 am 04:55 Clear 38 3.6 35 1.5 86 86 W 6 9 30.15 1021 10 16.0934 0 0
5:15 am 05:15 Clear 38 3.6 35 1.5 86 86 W 6 9 30.15 1021 10 16.0934 0 0
5:35 am 05:35 Clear 38 3.6 35 1.5 86 86 WNW 5 7 30.15 1021 10 16.0934 0 0
5:55 am 05:55 Clear 39 3.7 35 1.5 86 86 WNW 5 7 30.15 1021 10 16.0934 0 0
6:15 am 06:15 Clear 39 3.9 35 1.5 85 85 WNW 3 6 30.18 1022 10 16.0934 0 0
6:35 am 06:35 Clear 39 4 35 1.5 84 84 WNW 7 11 30.18 1022 10 16.0934 0 0
6:55 am 06:55 Clear 39 4.1 35 1.5 83 83 WNW 5 7 30.18 1022 10 16.0934 0 0
7:15 am 07:15 Clear 39 4.1 35 1.5 83 83 W 6 9 30.18 1022 10 16.0934 0 0
7:35 am 07:35 Clear 39 4.1 35 1.5 83 83 W 6 9 30.18 1022 10 16.0934 0 0
7:55 am 07:55 Clear 39 4.1 35 1.5 83 83 W 5 7 30.18 1022 10 16.0934 0 0
8:15 am 08:15 Sunny 39 3.8 34 1.3 84 84 W 6 9 30.18 1022 10 16.0934 0 0
8:35 am 08:35 Partly Cloudy 39 3.9 35 1.5 85 85 W 6 9 30.18 1022 10 16.0934 0 0
8:55 am 08:55 Partly Cloudy 40 4.3 35 1.8 84 84 WNW 5 7 30.21 1023 10 16.0934 0 0
9:15 am 09:15 Sunny 41 5 36 2.1 82 82 WNW 5 7 30.18 1022 10 16.0934 0 0
9:35 am 09:35 undefined N/A N/A N/A WNW 5 7 N/A N/A 0 0
9:55 am 09:55 Cloudy 43 5.9 37 2.6 80 80 WNW 6 9 30.18 1022 10 16.0934 0 0
10:15 am 10:15 Cloudy 44 6.8 36 2 72 72 NW 5 7 30.18 1022 10 16.0934 0 0
10:35 am 10:35 Mostly Cloudy 45 7.2 35 1.8 69 69 NW 6 9 30.15 1021 10 16.0934 0 0
10:55 am 10:55 Partly Cloudy 47 8.2 36 2.2 66 66 NW 6 9 30.12 1020 10 16.0934 0 0
11:15 am 11:15 Sunny 48 8.7 35 1.7 62 62 NNW 3 6 30.12 1020 10 16.0934 0 0
11:35 am 11:35 Sunny 49 9.5 35 1.4 57 57 Calm 30.12 1020 10 16.0934 0 0
11:55 am 11:55 Sunny 51 10.6 36 2 56 56 NW 3 6 30.12 1020 10 16.0934 0 0
12:15 pm 12:15 Sunny 52 11 35 1.4 52 52 Calm 30.09 1019 10 16.0934 0 0
12:35 pm 12:35 Sunny 54 12 33 0.7 46 46 Calm 30.09 1019 10 16.0934 0 0
12:55 pm 12:55 Sunny 55 12.6 31 -0.7 40 40 Calm 30.09 1019 10 16.0934 0 0
1:15 pm 13:15 Sunny 55 13 31 -0.5 40 40 NE 5 7 30.06 1018 10 16.0934 0 0
1:35 pm 13:35 Sunny 56 13.2 30 -1.2 37 37 NE 3 6 30.06 1018 10 16.0934 0 0
1:55 pm 13:55 Partly Cloudy 57 13.7 30 -1 37 37 WNW 5 7 30 1016 10 16.0934 0 0
2:15 pm 14:15 Partly Cloudy 56 13.5 28 -2.1 34 34 Calm 30 1016 10 16.0934 0 0
2:35 pm 14:35 Partly Cloudy 57 13.8 28 -2.2 33 33 Calm 30 1016 10 16.0934 0 0
2:55 pm 14:55 Partly Cloudy 58 14.5 29 -1.9 32 32 W 8 13 30 1016 10 16.0934 0 0
3:15 pm 15:15 Mostly Cloudy 57 13.9 27 -2.8 32 32 W 9 15 30 1016 10 16.0934 0 0
3:35 pm 15:35 Mostly Cloudy 58 14.2 26 -3.2 30 30 W 7 11 30 1016 10 16.0934 0 0
3:55 pm 15:55 Mostly Cloudy 58 14.6 28 -2.4 31 31 WNW 10 17 30 1016 10 16.0934 0 0
4:15 pm 16:15 Mostly Cloudy 58 14.5 26 -3.6 29 29 WNW 9 15 29.97 1015 10 16.0934 0 0
4:35 pm 16:35 Partly Cloudy 58 14.2 23 -4.9 26 26 W 5 7 29.97 1015 10 16.0934 0 0
4:55 pm 16:55 Sunny 57 14 24 -4.7 27 27 W 3 6 29.97 1015 10 16.0934 0 0
5:15 pm 17:15 Sunny 56 13.6 24 -4.6 28 28 Calm 29.97 1015 10 16.0934 0 0
5:35 pm 17:35 Sunny 56 13.2 25 -3.7 31 31 W 3 6 29.97 1015 10 16.0934 0 0
5:55 pm 17:55 Sunny 56 13.1 25 -3.7 31 31 WSW 3 6 30 1016 10 16.0934 0 0
6:15 pm 18:15 Sunny 55 12.6 26 -3.6 32 32 Calm 30 1016 10 16.0934 0 0
6:35 pm 18:35 Sunny 52 11 25 -3.9 35 35 SW 3 6 30 1016 10 16.0934 0 0
7:15 pm 19:15 Clear 48 8.8 25 -3.9 41 41 SSW 3 6 30.03 1017 7 11.26538 0 0
7:35 pm 19:35 Clear 45 7.1 26 -3.6 47 47 SW 3 6 30.03 1017 10 16.0934 0 0
7:55 pm 19:55 Clear 43 6.3 27 -2.9 52 52 SW 3 6 30.06 1018 10 16.0934 0 0
8:15 pm 20:15 Clear 42 5.7 26 -3.1 54 54 Calm 30.06 1018 10 16.0934 0 0
8:35 pm 20:35 Clear 43 6 26 -3.3 52 52 SSW 3 6 30.06 1018 10 16.0934 0 0
8:55 pm 20:55 Clear 40 4.6 27 -2.9 59 59 Calm 30.06 1018 10 16.0934 0 0
9:15 pm 21:15 Clear 40 4.4 27 -3 59 59 Calm 30.06 1018 10 16.0934 0 0
9:35 pm 21:35 Clear 34 1.1 27 -3 74 74 Calm 30.06 1018 10 16.0934 0 0
9:55 pm 21:55 Clear 35 1.9 28 -2.5 73 73 Calm 30.06 1018 10 16.0934 0 0
10:15 pm 22:15 Clear 35 1.4 27 -3 73 73 NNW 3 6 30.06 1018 10 16.0934 0 0
10:35 pm 22:35 Clear 33 0.6 26 -3.3 75 75 NW 6 9 30.06 1018 10 16.0934 0 0
10:55 pm 22:55 Clear 34 1 26 -3.3 73 73 Calm 30.06 1018 10 16.0934 0 0
11:15 pm 23:15 Clear 32 0 26 -3.4 78 78 WNW 6 9 30.09 1019 10 16.0934 0 0
11:35 pm 23:35 Clear 33 0.8 26 -3.6 73 73 W 3 6 30.06 1018 10 16.0934 0 0
11:55 pm 23:55 Clear 32 -0.2 25 -3.8 77 77 Calm 30.09 1019 10 16.0934 0 0

Powered by AerisWeather